Regional Weather Roundup
Issued by NWS

Home | Current Version | Previous Version | Graphics & Text | Print | Product List | Glossary On
Versions: 1 2 3 4 5 6 7 8 9 10 11 12 13 14 15 16 17 18 19 20 21 22 23 24 25 26 27 28 29 30 31 32 33 34 35 36 37 38 39 40 41 42 43 44 45 46 47 48 49 50
000
ASUS43 KDMX 220206
RWRIA

WEATHER ROUNDUP FOR IOWA
NATIONAL WEATHER SERVICE DES MOINES IA
900 PM CDT TUE MAR 21 2017

NOTE: "FAIR" INDICATES FEW OR NO CLOUDS BELOW 12,000 FEET WITH NO
SIGNIFICANT WEATHER AND/OR OBSTRUCTIONS TO VISIBILITY.

* - THESE STATIONS ARE NOT NWS STATIONS...THUS NOT UNDER NWS
QUALITY CONTROL.  THEY ALSO DO NOT REPORT WEATHER SUCH
AS PRECIPITATION OR FOG.

IAZ001>003-012>014-020>022-031>034-043>046-220300-
   NORTHWEST IOWA

CITY           SKY/WX    TMP DP  RH WIND       PRES   REMARKS
CARROLL *      CLOUDY    37  27  65 N12       30.41R WCI  30
CHEROKEE *     PTCLDY    35  22  61 N8        30.44R WCI  28
DENISON *      CLOUDY    39  25  56 NE8       30.39R WCI  34
LE MARS *      CLOUDY    36  23  60 NE10      30.45R WCI  28
ORANGE CITY *  CLOUDY    34  25  69 NE7       30.44R WCI  28
SHELDON *      CLOUDY    30  28  93 N9        30.44R WCI  22
SIOUX CITY     CLOUDY    39  24  55 NE15      30.43R WCI  31
SPENCER        CLEAR     30  21  69 N8        30.44R WCI  22
STORM LAKE *   CLOUDY    34  23  64 NE14      30.41R WCI  24
$$

IAZ055>058-069>071-079>083-090>094-220300-
   SOUTHWEST IOWA

CITY           SKY/WX    TMP DP  RH WIND       PRES   REMARKS
ATLANTIC *     PTCLDY    39  27  60 N9        30.39R WCI  33
AUDUBON *      CLOUDY    37  28  70 N6        30.41R WCI  33
CLARINDA *     PTCLDY    41  23  48 N9        30.39R
COUNCIL BLFS * CLOUDY    43  23  45 NE8       30.38R
CRESTON *      PTCLDY    39  21  48 N9        30.37S WCI  33
HARLAN  *      CLOUDY    39  28  65 NE9       30.43R WCI  33
LAMONI         CLOUDY    40  23  50 N8        30.35R WCI  34
RED OAK *      PTCLDY    39  23  52 N7        30.38R WCI  34
SHENANDOAH *   PTCLDY    41  23  48 N9        30.38R
$$

IAZ047>049-059>061-072>074-084-220300-
   CENTRAL IOWA

CITY           SKY/WX    TMP DP  RH WIND       PRES   REMARKS
AMES           CLEAR     38  25  59 N12       30.39R WCI  30
ANKENY *       CLEAR     37  23  56 N12       30.40R WCI  30
BOONE *        CLEAR     36  23  60 N12       30.39R WCI  27
CHARITON *     CLOUDY    39  23  52 N8        30.35R WCI  34
DES MOINES     MOCLDY    43  22  43 N15       30.39R
MARSHALLTOWN   CLEAR     34  23  64 N12       30.38R WCI  25
NEWTON *       CLEAR     37  21  52 N12       30.36R WCI  30
PELLA *        CLEAR     39  24  55 N8        30.38R WCI  33
PERRY *          N/A     38  21  50 N12       30.40R WCI  31
$$

IAZ004>006-015-016-023>025-035-036-220300-
   NORTH CENTRAL IOWA

CITY           SKY/WX    TMP DP  RH WIND       PRES   REMARKS
ALGONA *       CLEAR     32  21  64 N12G17    30.42S WCI  23
CLARION *      CLEAR     32  25  74 N8        30.42R WCI  25
ESTHERVILLE    CLEAR     29  22  75 N10       30.44R WCI  20
FORT DODGE *   CLEAR     34  19  55 N9        30.43R WCI  26
MASON CITY     CLEAR     26  19  74 N9        30.43R WCI  17
FOREST CITY *    N/A     30  19  64 N8        30.43R WCI  23
WEBSTER CITY * CLEAR     34  23  64 N12       30.39R WCI  25
$$

IAZ007>011-017>019-026>030-037>042-050>054-066-220300-
   NORTHEAST IOWA

CITY           SKY/WX    TMP DP  RH WIND       PRES   REMARKS
CEDAR RAPIDS   CLEAR     37  20  50 N13       30.35R WCI  29
CLINTON *      CLEAR     36  20  52 N12       30.32R WCI  28
DECORAH *      CLEAR     32  16  51 N12       30.39R WCI  23
DUBUQUE        CLEAR     39  13  34 N13       30.33R WCI  31
MONTICELLO *   CLEAR     37  18  44 N14       30.35R WCI  29
OELWEIN *      CLEAR     30  21  69 NW8       30.39R WCI  23
WATERLOO       CLEAR     32  19  58 N10       30.40R WCI  24
$$

IAZ064-065-067-068-078-220300-
   EAST CENTRAL IOWA

CITY           SKY/WX    TMP DP  RH WIND       PRES   REMARKS
DAVENPORT      CLEAR     38  21  50 N10       30.32R WCI  31
IOWA CITY      CLEAR     44  21  40 N9        30.36R
MUSCATINE *    CLEAR     43  19  39 N12       30.34R
QUAD CITIES    CLEAR     45  19  35 N8G18     30.30R
$$

IAZ062-063-075>077-085>089-095>099-220300-
   SOUTHEAST IOWA

CITY           SKY/WX    TMP DP  RH WIND       PRES   REMARKS
BURLINGTON     CLEAR     43  25  49 NW6       30.30R
FAIRFIELD *    CLEAR     36  25  64 N10       30.34R WCI  28
FORT MADISON * CLEAR     37  28  70 NW5       30.32R WCI  34
KEOKUK *       CLEAR     43  30  61 NW6       30.31R
OSKALOOSA *      N/A     38  23  55 N13       30.35R WCI  30
CENTERVILLE *    N/A     39  21  48 CALM      30.35R
OTTUMWA        CLEAR     37  24  59 N12       30.34R WCI  29
WASHINGTON *   CLEAR     41  21  45 N14       30.35R
$$

ABBREVIATIONS USED IN REMARKS
   TC - TEMPERATURES IN CELSIUS
  WCI - WIND CHILL INDEX
   HX - HEAT INDEX
  VSB - VISIBILITY
$$





USA.gov is the U.S. government's official web portal to all federal, state and local government web resources and services.